This is the latest recevied weather packets stored in our database for station/object KB3FCJ-2. If no packets are shown the sender has not sent any weather packets the latest 10 day(s).
| Time | Temp. | Humidity | Pressure | Rain* | Wind** | Luminosity | Snow |
|---|---|---|---|---|---|---|---|
| 1778022504 | 25° C | 46% | 829 hPa | 0 mm | - | - | - |
| 1778021904 | 25.56° C | 46% | 829 hPa | 0 mm | - | - | - |
| 1778021304 | 25.56° C | 45% | 829 hPa | 0 mm | - | - | - |
| 1778020704 | 26.11° C | 44% | 829 hPa | 0 mm | - | - | - |
| 1778019862 | 26.67° C | 44% | 829 hPa | 0 mm | - | - | - |
| 1778019261 | 26.67° C | 43% | 829 hPa | 0 mm | - | - | - |
| 1778018661 | 26.67° C | 44% | 829 hPa | 0 mm | - | - | - |
| 1778018061 | 26.11° C | 44% | 829 hPa | 0 mm | - | - | - |
| 1778017214 | 26.67° C | 44% | 829 hPa | 0 mm | - | - | - |
| 1778016615 | 26.67° C | 46% | 829 hPa | 0 mm | - | - | - |
| 1778016014 | 26.67° C | 46% | 829 hPa | 0 mm | - | - | - |
| 1778015414 | 26.11° C | 46% | 829 hPa | 0 mm | - | - | - |
| 1778014599 | 26.67° C | 45% | 829 hPa | 0 mm | - | - | - |
| 1778014000 | 26.67° C | 45% | 829 hPa | 0 mm | - | - | - |
| 1778013399 | 27.22° C | 43% | 829 hPa | 0 mm | - | - | - |
| 1778012799 | 26.67° C | 43% | 829 hPa | 0 mm | - | - | - |
| 1778011953 | 26.67° C | 45% | 829 hPa | 0 mm | - | - | - |
| 1778011352 | 26.67° C | 43% | 829 hPa | 0 mm | - | - | - |
| 1778010753 | 26.67° C | 43% | 829 hPa | 0 mm | - | - | - |
| 1778010152 | 27.22° C | 42% | 829 hPa | 0 mm | - | - | - |
| 1778008711 | 26.67° C | 45% | 829 hPa | 0 mm | - | - | - |
| 1778008111 | 26.67° C | 43% | 829 hPa | 0 mm | - | - | - |
| 1778007512 | 26.67° C | 44% | 829 hPa | 0 mm | - | - | - |
| 1778006664 | 26.67° C | 46% | 829 hPa | 0 mm | - | - | - |
| 1778006065 | 26.67° C | 47% | 829 hPa | 0 mm | - | - | - |
* Rain latest hour (hover to see other rain measurements)
** Current wind speed in m/s (hover to see current wind gust speed)